Colby, KS

12:54 PM CDT on September 20, 2017 (GMT -0500)
Shaltz

Weather History for KCBK - May, 2013

Change the Weather History Date:

Tuesday, May 7, 2013

  Actual Average (KGLD) Record (KGLD)
Temperature  
Mean Temperature 64 °F -  
Max Temperature 77 °F 71 °F 95 °F (1962)
Min Temperature 51 °F 43 °F 27 °F (1917)
Degree Days  
Heating Degree Days 1    
Growing Degree Days 14 (Base 50)    
Moisture  
Dew Point 50 °F    
Average Humidity 72    
Maximum Humidity 94    
Minimum Humidity 36    
Precipitation  
Precipitation 0.00 in - - ()
Sea Level Pressure  
Sea Level Pressure 29.93 in    
Wind  
Wind Speed 13 mph (SE)    
Max Wind Speed 24 mph    
Max Gust Speed 30 mph    
Visibility 10 miles    
Events      
Averages and records for this station are not official NWS values.
T = Trace of Precipitation, MM = Missing Value Source: NWS Daily Summary

Daily Weather History Graph

Daily Weather History Graph

Search for Another Location

Airport or City:

Trip Planner

Search our weather history database for the weather conditions in past years. The results will help you decide how hot, cold, wet, or windy it might be!

Date:

Astronomy

May. 07, 2013 Rise Set
Actual Time 6:38 AM CDT 8:43 PM CDT
Civil Twilight 6:08 AM CDT 9:13 PM CDT
Nautical Twilight 5:32 AM CDT 9:49 PM CDT
Astronomical Twilight 4:53 AM CDT 10:29 PM CDT
Moon 5:12 AM CDT (5/7) 6:46 PM CDT (5/7)
Length of Visible Light 15h 05m
Length of Day
14h 05m
Waning Crescent, 5% of the Moon is Illuminated
May 7
Waning Crescent
May 9
New
May 17
First Quarter
May 24
Full
May 31
Last Quarter

Hourly Weather History & Observations

Time (CDT) Temp. Dew Point Humidity Pressure Visibility Wind Dir Wind Speed Gust Speed Precip Events Conditions
12:15 AM 51.8 °F 42.8 °F 71% 30.03 in 10.0 mi ESE 9.2 mph - N/A   Scattered Clouds
12:35 AM 53.6 °F 42.8 °F 67% 30.03 in 10.0 mi ESE 9.2 mph - N/A   Scattered Clouds
12:55 AM 53.6 °F 44.6 °F 72% 30.03 in 10.0 mi ESE 9.2 mph - N/A   Overcast
1:15 AM 51.8 °F 44.6 °F 76% 30.03 in 10.0 mi ESE 6.9 mph - N/A   Overcast
1:35 AM 51.8 °F 44.6 °F 76% 30.03 in 10.0 mi ESE 6.9 mph - N/A   Overcast
1:55 AM 51.8 °F 44.6 °F 76% 30.03 in 10.0 mi ESE 5.8 mph - N/A   Overcast
2:15 AM 51.8 °F 44.6 °F 76% 30.02 in 10.0 mi ESE 6.9 mph - N/A   Mostly Cloudy
2:35 AM 51.8 °F 44.6 °F 76% 30.01 in 10.0 mi SE 8.1 mph - N/A   Mostly Cloudy
2:55 AM 51.8 °F 46.4 °F 82% 30.01 in 10.0 mi SE 8.1 mph - N/A   Mostly Cloudy
3:15 AM 51.8 °F 46.4 °F 82% 30.01 in 10.0 mi SE 8.1 mph - N/A   Mostly Cloudy
3:35 AM 51.8 °F 46.4 °F 82% 30.01 in 10.0 mi SE 8.1 mph - N/A   Mostly Cloudy
3:55 AM 51.8 °F 46.4 °F 82% 30.00 in 10.0 mi SE 8.1 mph - N/A   Overcast
4:15 AM 51.8 °F 46.4 °F 82% 30.00 in 10.0 mi SE 11.5 mph - N/A   Scattered Clouds
4:35 AM 51.8 °F 46.4 °F 82% 30.00 in 10.0 mi SE 11.5 mph - N/A   Scattered Clouds
4:55 AM 51.8 °F 46.4 °F 82% 29.99 in 10.0 mi SE 11.5 mph - N/A   Overcast
5:15 AM 51.8 °F 46.4 °F 82% 29.99 in 10.0 mi SE 12.7 mph - N/A   Overcast
5:35 AM 51.8 °F 48.2 °F 88% 29.99 in 10.0 mi SE 11.5 mph - N/A   Overcast
5:55 AM 51.8 °F 48.2 °F 88% 29.98 in 10.0 mi SE 12.7 mph - N/A   Overcast
6:15 AM 51.8 °F 50.0 °F 94% 29.98 in 10.0 mi SE 11.5 mph - N/A   Overcast
6:35 AM 51.8 °F 50.0 °F 94% 29.98 in 10.0 mi SE 12.7 mph - N/A   Overcast
6:55 AM 51.8 °F 48.2 °F 88% 29.98 in 10.0 mi SE 12.7 mph - N/A   Mostly Cloudy
7:15 AM 51.8 °F 50.0 °F 94% 29.98 in 10.0 mi SE 13.8 mph - N/A   Scattered Clouds
7:35 AM 51.8 °F 50.0 °F 94% 29.98 in 10.0 mi SE 16.1 mph - N/A   Mostly Cloudy
7:55 AM 53.6 °F 50.0 °F 88% 29.98 in 10.0 mi SE 13.8 mph - N/A   Overcast
8:15 AM 53.6 °F 50.0 °F 88% 29.98 in 10.0 mi SE 15.0 mph 19.6 mph N/A   Overcast
8:35 AM 53.6 °F 50.0 °F 88% 29.98 in 10.0 mi SE 16.1 mph 23.0 mph N/A   Overcast
8:55 AM 55.4 °F 50.0 °F 82% 29.98 in 10.0 mi SSE 19.6 mph 24.2 mph N/A   Overcast
9:15 AM 57.2 °F 50.0 °F 77% 29.98 in 10.0 mi SSE 21.9 mph 26.5 mph N/A   Overcast
9:35 AM 57.2 °F 50.0 °F 77% 29.98 in 10.0 mi SE 20.7 mph - N/A   Overcast
9:55 AM 57.2 °F 50.0 °F 77% 29.98 in 10.0 mi SE 18.4 mph 28.8 mph N/A   Overcast
10:15 AM 57.2 °F 50.0 °F 77% 29.98 in 10.0 mi SE 19.6 mph 27.6 mph N/A   Overcast
10:35 AM 59.0 °F 50.0 °F 72% 29.97 in 10.0 mi SSE 21.9 mph 26.5 mph N/A   Overcast
10:55 AM 60.8 °F 51.8 °F 72% 29.97 in 10.0 mi SSE 19.6 mph 27.6 mph N/A   Overcast
11:15 AM 60.8 °F 51.8 °F 72% 29.96 in 10.0 mi SSE 19.6 mph 26.5 mph N/A   Overcast
11:35 AM 62.6 °F 51.8 °F 68% 29.96 in 10.0 mi SE 16.1 mph 24.2 mph N/A   Overcast
11:55 AM 62.6 °F 50.0 °F 63% 29.96 in 10.0 mi SSE 19.6 mph 26.5 mph N/A   Overcast
12:15 PM 64.4 °F 51.8 °F 64% 29.95 in 10.0 mi SSE 18.4 mph 29.9 mph N/A   Overcast
12:35 PM 68.0 °F 51.8 °F 56% 29.95 in 10.0 mi SSE 19.6 mph 25.3 mph N/A   Overcast
12:55 PM 68.0 °F 50.0 °F 52% 29.93 in 10.0 mi SSE 19.6 mph 24.2 mph N/A   Mostly Cloudy
1:15 PM 69.8 °F 50.0 °F 49% 29.92 in 10.0 mi South 19.6 mph 23.0 mph N/A   Mostly Cloudy
1:35 PM 71.6 °F 50.0 °F 46% 29.91 in 10.0 mi SSE 19.6 mph 25.3 mph N/A   Mostly Cloudy
1:55 PM 69.8 °F 50.0 °F 49% 29.91 in 10.0 mi SE 18.4 mph 23.0 mph N/A   Mostly Cloudy
2:15 PM 71.6 °F 50.0 °F 46% 29.90 in 10.0 mi SSE 19.6 mph 27.6 mph N/A   Mostly Cloudy
2:35 PM 71.6 °F 50.0 °F 46% 29.89 in 10.0 mi South 17.3 mph 26.5 mph N/A   Mostly Cloudy
2:55 PM 71.6 °F 50.0 °F 46% 29.88 in 10.0 mi SSE 9.2 mph 23.0 mph N/A   Overcast
3:15 PM 73.4 °F 50.0 °F 44% 29.88 in 10.0 mi SE 18.4 mph 21.9 mph N/A   Overcast
3:35 PM 71.6 °F 48.2 °F 43% 29.86 in 10.0 mi SE 11.5 mph 19.6 mph N/A   Mostly Cloudy
3:55 PM 73.4 °F 50.0 °F 44% 29.86 in 10.0 mi SSE 12.7 mph 19.6 mph N/A   Mostly Cloudy
4:15 PM 77.0 °F 50.0 °F 39% 29.85 in 10.0 mi South 16.1 mph - N/A   Overcast
4:35 PM 75.2 °F 46.4 °F 36% 29.84 in 10.0 mi South 12.7 mph 26.5 mph N/A   Mostly Cloudy
5:15 PM 73.4 °F 48.2 °F 41% 29.83 in 10.0 mi SSE 12.7 mph - N/A   Mostly Cloudy
5:35 PM 73.4 °F 48.2 °F 41% 29.83 in 10.0 mi SE 13.8 mph - N/A   Mostly Cloudy
5:55 PM 73.4 °F 48.2 °F 41% 29.82 in 10.0 mi ESE 13.8 mph - N/A   Mostly Cloudy
6:15 PM 71.6 °F 51.8 °F 50% 29.82 in 10.0 mi ENE 21.9 mph 26.5 mph N/A   Mostly Cloudy
6:35 PM 69.8 °F 51.8 °F 53% 29.82 in 10.0 mi East 24.2 mph 28.8 mph N/A   Scattered Clouds
6:55 PM 68.0 °F 53.6 °F 60% 29.81 in 10.0 mi ENE 20.7 mph 25.3 mph N/A   Clear
7:15 PM 64.4 °F 53.6 °F 68% 29.82 in 10.0 mi NE 16.1 mph 19.6 mph N/A   Clear
7:35 PM 62.6 °F 53.6 °F 72% 29.84 in 10.0 mi ENE 18.4 mph 23.0 mph N/A   Clear
7:55 PM 60.8 °F 53.6 °F 77% 29.85 in 10.0 mi NE 12.7 mph - N/A   Clear
8:15 PM 60.8 °F 53.6 °F 77% 29.86 in 10.0 mi ENE 16.1 mph - N/A   Clear
8:35 PM 60.8 °F 53.6 °F 77% 29.86 in 10.0 mi East 12.7 mph - N/A   Clear
8:55 PM 60.8 °F 53.6 °F 77% 29.87 in 10.0 mi East 18.4 mph - N/A   Clear
9:15 PM 59.0 °F 55.4 °F 88% 29.87 in 10.0 mi East 13.8 mph 21.9 mph N/A   Clear
9:35 PM 59.0 °F 53.6 °F 82% 29.88 in 10.0 mi East 15.0 mph - N/A   Clear
9:55 PM 57.2 °F 53.6 °F 88% 29.89 in 10.0 mi East 11.5 mph 17.3 mph N/A   Clear
10:15 PM 55.4 °F 53.6 °F 94% 29.89 in 10.0 mi ESE 13.8 mph - N/A   Clear
10:35 PM 55.4 °F 51.8 °F 88% 29.90 in 10.0 mi ESE 12.7 mph - N/A   Clear
10:55 PM 55.4 °F 51.8 °F 88% 29.90 in 10.0 mi SE 12.7 mph - N/A   Clear
11:15 PM 55.4 °F 51.8 °F 88% 29.90 in 10.0 mi ESE 12.7 mph - N/A   Clear
11:35 PM 53.6 °F 51.8 °F 94% 29.90 in 10.0 mi ESE 9.2 mph - N/A   Clear
11:55 PM 53.6 °F 51.8 °F 94% 29.90 in 10.0 mi ESE 9.2 mph - N/A   Clear